Volver al catálogo

CZ-6A DEB

ActivoPO
NORAD 55208·DEBRIS·🇨🇳 China

Lanzado Nov 11, 2022 desde Taiyuan Satellite Launch Center

Loading…

Próximos Pases (próximas 24 horas)

TLE

ActualizadoSource: Space-Track

Época: Sep 14, 2026, 04:19 UTC

1 55208U 22151VZ  26257.17997189  .00026022  00000-0  21990-2 0  9999
2 55208  98.6232 341.8831 0038122 322.6228  37.2340 14.97495053198814

Sigue CZ-6A DEB en tiempo real con AllMySat

Download on the App Store